Orlando International, FL

5:48 PM EDT on April 30, 2017 (GMT -0400)
Orlando International

Weather History for KMCO - June, 2014

Change the Weather History Date:

Friday, June 27, 2014

  Actual Average Record
Temperature  
Mean Temperature 83 °F 82 °F  
Max Temperature 94 °F 91 °F 97 °F (1954)
Min Temperature 72 °F 73 °F 64 °F (1936)
Degree Days  
Heating Degree Days 0 0  
Month to date heating degree days 0 0  
Since 1 June heating degree days 0 0  
Since 1 July heating degree days 406 571  
Cooling Degree Days 18 17  
Month to date cooling degree days 444 439  
Year to date cooling degree days 1378 1240  
Since 1 June cooling degree days 444 439  
Growing Degree Days 33 (Base 50)    
Moisture  
Dew Point 72 °F    
Average Humidity 72    
Maximum Humidity 94    
Minimum Humidity 49    
Precipitation  
Precipitation 1.06 in 0.24 in 1.96 in (1946)
Month to date precipitation 4.62 6.83  
Year to date precipitation 21.97 21.46  
Sea Level Pressure  
Sea Level Pressure 30.08 in    
Wind  
Wind Speed 6 mph (SW)    
Max Wind Speed 32 mph    
Max Gust Speed 41 mph    
Visibility 9 miles    
Events Rain , Thunderstorm    
T = Trace of Precipitation, MM = Missing Value Source: NWS Daily Summary

Daily Weather History Graph

Daily Weather History Graph

Search for Another Location

Airport or City:

Trip Planner

Search our weather history database for the weather conditions in past years. The results will help you decide how hot, cold, wet, or windy it might be!

Date:

Astronomy

Jun. 27, 2014 Rise Set
Actual Time 6:30 AM EDT 8:26 PM EDT
Civil Twilight 6:03 AM EDT 8:53 PM EDT
Nautical Twilight 5:30 AM EDT 9:25 PM EDT
Astronomical Twilight 4:56 AM EDT 10:00 PM EDT
Moon 6:51 AM EDT (6/27) 8:39 PM EDT (6/27)
Length of Visible Light 14h 50m
Length of Day
13h 56m
New Moon, 0% of the Moon is Illuminated
Jun 27
New Moon
Jul 5
First Quarter
Jul 12
Full
Jul 18
Last Quarter
Jul 26
New

Hourly Weather History & Observations

Time (EDT) Temp. Heat Index Dew Point Humidity Pressure Visibility Wind Dir Wind Speed Gust Speed Precip Events Conditions
12:53 AM 75.0 °F - 73.0 °F 94% 30.08 in 10.0 mi SSW 3.5 mph - N/A   Mostly Cloudy
1:53 AM 75.0 °F - 73.0 °F 94% 30.07 in 10.0 mi WSW 4.6 mph - N/A   Scattered Clouds
2:53 AM 75.0 °F - 73.9 °F 96% 30.05 in 10.0 mi WSW 4.6 mph - N/A   Scattered Clouds
3:53 AM 75.0 °F - 73.0 °F 94% 30.04 in 10.0 mi Calm Calm - N/A   Scattered Clouds
4:53 AM 75.0 °F - 73.0 °F 94% 30.05 in 10.0 mi Calm Calm - N/A   Scattered Clouds
5:53 AM 75.9 °F - 73.0 °F 91% 30.06 in 10.0 mi West 4.6 mph - N/A   Mostly Cloudy
6:53 AM 75.9 °F - 73.0 °F 91% 30.08 in 10.0 mi WNW 4.6 mph - N/A   Mostly Cloudy
7:53 AM 78.1 °F - 73.9 °F 87% 30.09 in 10.0 mi West 4.6 mph - N/A   Mostly Cloudy
8:53 AM 82.9 °F 89.4 °F 73.9 °F 74% 30.10 in 10.0 mi NW 6.9 mph - N/A   Mostly Cloudy
9:53 AM 86.0 °F 95.1 °F 75.0 °F 70% 30.10 in 10.0 mi NW 10.4 mph - N/A   Scattered Clouds
10:53 AM 87.1 °F 96.3 °F 75.0 °F 67% 30.11 in 10.0 mi NW 8.1 mph - N/A   Scattered Clouds
11:53 AM 90.0 °F 99.0 °F 73.9 °F 59% 30.11 in 10.0 mi North 9.2 mph - N/A   Mostly Cloudy
12:53 PM 91.0 °F 99.3 °F 73.0 °F 55% 30.11 in 10.0 mi Variable 4.6 mph - N/A   Mostly Cloudy
1:53 PM 91.9 °F 101.3 °F 73.9 °F 55% 30.09 in 10.0 mi East 5.8 mph - N/A   Mostly Cloudy
2:53 PM 93.0 °F 100.7 °F 72.0 °F 50% 30.06 in 10.0 mi Calm Calm - N/A   Mostly Cloudy
3:53 PM 91.9 °F 99.5 °F 72.0 °F 52% 30.05 in 10.0 mi ESE 8.1 mph - N/A   Mostly Cloudy
4:53 PM 91.0 °F 98.2 °F 72.0 °F 53% 30.02 in 10.0 mi East 12.7 mph - N/A   Mostly Cloudy
4:58 PM 91.0 °F 99.3 °F 73.0 °F 55% 30.02 in 10.0 mi East 9.2 mph 18.4 mph N/A Thunderstorm Thunderstorm
5:28 PM 77.0 °F - 71.1 °F 82% 30.10 in 2.0 mi West 28.8 mph 41.4 mph 0.02 in Rain , Thunderstorm Heavy Thunderstorms and Rain
5:34 PM 73.0 °F - 70.0 °F 90% 30.09 in 1.0 mi SW 28.8 mph 41.4 mph 0.23 in Rain , Thunderstorm Heavy Thunderstorms and Rain
5:41 PM 73.0 °F - 69.1 °F 87% 30.06 in 1.0 mi West 23.0 mph 33.4 mph 0.60 in Rain , Thunderstorm Heavy Thunderstorms and Rain
5:50 PM 80.6 °F 81.8 °F 62.6 °F 54% 30.06 in 4.0 mi West 10.4 mph 32.2 mph 0.91 in Rain , Thunderstorm Heavy Thunderstorms and Rain
5:53 PM 77.0 °F - 66.9 °F 71% 30.06 in 4.0 mi WSW 10.4 mph 32.2 mph 0.98 in Rain , Thunderstorm Heavy Thunderstorms and Rain
6:02 PM 73.9 °F - 69.1 °F 85% 30.06 in 4.0 mi SW 11.5 mph - 0.05 in Rain , Thunderstorm Thunderstorms and Rain
6:12 PM 73.0 °F - 69.1 °F 87% 30.06 in 5.0 mi SW 8.1 mph - 0.07 in Rain , Thunderstorm Light Thunderstorms and Rain
6:53 PM 73.0 °F - 70.0 °F 90% 30.11 in 10.0 mi South 11.5 mph - 0.08 in Rain , Thunderstorm Light Thunderstorms and Rain
7:37 PM 73.0 °F - 70.0 °F 90% 30.12 in 10.0 mi SSW 5.8 mph - 0.00 in Rain Light Rain
7:46 PM 73.0 °F - 70.0 °F 90% 30.12 in 10.0 mi SSW 9.2 mph - 0.00 in Rain , Thunderstorm Light Thunderstorms and Rain
7:53 PM 73.0 °F - 70.0 °F 90% 30.11 in 10.0 mi SSE 6.9 mph - 0.00 in Rain , Thunderstorm Light Thunderstorms and Rain
8:41 PM 73.0 °F - 71.1 °F 93% 30.10 in 10.0 mi South 5.8 mph - 0.00 in Rain Light Rain
8:53 PM 73.9 °F - 71.1 °F 91% 30.10 in 10.0 mi SSW 6.9 mph - 0.00 in   Overcast
9:53 PM 73.0 °F - 70.0 °F 90% 30.11 in 10.0 mi WSW 6.9 mph - 0.00 in   Overcast
10:53 PM 73.0 °F - 70.0 °F 90% 30.12 in 10.0 mi SSW 5.8 mph - N/A   Overcast
11:53 PM 73.0 °F - 70.0 °F 90% 30.13 in 10.0 mi SW 3.5 mph - N/A   Overcast